Location: Old Broadwell Mill Observatory
(33.8015°N, 85.8137°W)
Time: 17:58:20
(UTC-05:00)

Gurwin Techsat 1B - Visible Passes

Search period start: 29 May 2016 00:00
Search period end: 08 June 2016 00:00
Orbit: 811 x 815 km, 98.6° (Epoch: 29 May)

Date Brightness Start Highest point End Pass type
(mag) Time Alt. Az. Time Alt. Az. Time Alt. Az.
29 May 8.5 02:53:59 10° NNE 02:59:20 88° ESE 02:59:57 71° S visible
30 May 9.0 02:31:20 10° NNE 02:36:32 52° E 02:36:55 51° ESE visible
30 May 10.4 04:12:44 10° NNW 04:16:00 17° WNW 04:18:08 13° W visible
31 May 9.9 02:09:00 10° NE 02:13:41 31° E 02:13:53 31° ESE visible
31 May 9.8 03:49:03 10° NNW 03:53:28 27° WNW 03:55:06 23° W visible
01 Jun 10.6 01:47:08 10° NE 01:50:45 18° E 01:50:51 18° E visible
01 Jun 9.1 03:25:49 10° N 03:30:51 45° WNW 03:32:04 38° WSW visible
02 Jun 11.1 01:27:17 10° E 01:27:45 10° E 01:27:49 10° E visible
02 Jun 8.5 03:02:50 10° N 03:08:09 76° WNW 03:09:02 61° SW visible
03 Jun 8.7 02:40:06 10° NNE 02:45:24 65° ESE 02:45:59 60° SE visible
03 Jun 10.6 04:22:10 10° NW 04:24:44 14° WNW 04:27:12 10° W visible
04 Jun 9.5 02:17:37 10° NNE 02:22:34 38° E 02:22:57 37° ESE visible
04 Jun 10.0 03:58:11 10° NNW 04:02:13 23° WNW 04:04:10 18° W visible
05 Jun 10.3 01:55:32 10° NE 01:59:40 23° E 01:59:54 23° E visible
05 Jun 9.4 03:34:48 10° N 03:39:38 37° WNW 03:41:07 31° WSW visible
06 Jun 10.9 01:34:16 10° ENE 01:36:42 13° E 01:36:52 13° E visible
06 Jun 8.7 03:11:44 10° N 03:16:59 61° WNW 03:18:04 50° WSW visible
07 Jun 8.5 02:48:54 10° NNE 02:54:15 80° ESE 02:55:02 65° S visible
07 Jun 10.7 04:32:05 10° NW 04:33:27 11° WNW 04:34:49 10° WNW visible
